Location: Coopersdale
(40.3556°N, 78.9372°W)
Time: 09:58:36
(UTC+00:00)

Vanguard 1 - Pass Details

Date: 26 January 2021
Orbit: 649 x 3834 km, 34.2° (Epoch: 07 March)

Event Time Altitude Azimuth Distance (km) Brightness Sun altitude
Rises 23:56:19 0° 285° (WNW) 7,897 15.9 -17.2°
Reaches altitude 10° 00:02:05 10° 279° (W) 6,941 15.5 -18.3°
Maximum altitude 00:22:41 43° 219° (SW) 4,231 13.5 -22.2°
Drops below altitude 10° 00:37:35 10° 154° (SSE) 5,102 13.5 -25.0°
Sets 00:41:06 0° 147° (SSE) 5,729 13.7 -25.7°
